Year,Month,Day,Hour,Minute,Value (Times are PST for temperature in C)
2021,06,24,00,00,20.20
2021,06,24,00,01,20.20
2021,06,24,00,02,20.20
2021,06,24,00,03,20.20
2021,06,24,00,04,20.20
2021,06,24,00,05,20.20
2021,06,24,00,06,20.20
2021,06,24,00,07,20.20
2021,06,24,00,08,20.20
2021,06,24,00,09,20.10
2021,06,24,00,10,20.10
2021,06,24,00,11,20.10
2021,06,24,00,12,20.10
2021,06,24,00,13,20.10
2021,06,24,00,14,20.00
2021,06,24,00,15,20.00
2021,06,24,00,16,20.00
2021,06,24,00,17,20.00
2021,06,24,00,18,20.00
2021,06,24,00,19,20.00
2021,06,24,00,20,20.00
2021,06,24,00,21,19.90
2021,06,24,00,22,19.90
2021,06,24,00,23,19.90
2021,06,24,00,24,19.90
2021,06,24,00,25,19.90
2021,06,24,00,26,19.90
2021,06,24,00,27,19.90
2021,06,24,00,28,19.90
2021,06,24,00,29,19.90
2021,06,24,00,30,19.90
2021,06,24,00,31,19.90
2021,06,24,00,32,19.90
2021,06,24,00,33,19.90
2021,06,24,00,34,19.90
2021,06,24,00,35,19.90
2021,06,24,00,36,19.90
2021,06,24,00,37,19.90
2021,06,24,00,38,19.90
2021,06,24,00,39,19.80
2021,06,24,00,40,19.80
2021,06,24,00,41,19.80
2021,06,24,00,42,19.70
2021,06,24,00,43,19.70
2021,06,24,00,44,19.70
2021,06,24,00,45,19.60
2021,06,24,00,46,19.60
2021,06,24,00,47,19.60
2021,06,24,00,48,19.60
2021,06,24,00,49,19.50
2021,06,24,00,50,19.50
2021,06,24,00,51,19.50
2021,06,24,00,52,19.50
2021,06,24,00,53,19.40
2021,06,24,00,54,19.40
2021,06,24,00,55,19.40
2021,06,24,00,56,19.40
2021,06,24,00,57,19.40
2021,06,24,00,58,19.40
2021,06,24,00,59,19.40
2021,06,24,01,00,19.30
2021,06,24,01,01,19.30
2021,06,24,01,02,19.30
2021,06,24,01,03,19.30
2021,06,24,01,04,19.30
2021,06,24,01,05,19.30
2021,06,24,01,06,19.20
2021,06,24,01,07,19.20
2021,06,24,01,08,19.20
2021,06,24,01,09,19.20
2021,06,24,01,10,19.20
2021,06,24,01,11,19.20
2021,06,24,01,12,19.20
2021,06,24,01,13,19.20
2021,06,24,01,14,19.20
2021,06,24,01,15,19.20
2021,06,24,01,16,19.20
2021,06,24,01,17,19.10
2021,06,24,01,18,19.10
2021,06,24,01,19,19.10
2021,06,24,01,20,19.10
2021,06,24,01,21,19.10
2021,06,24,01,22,19.00
2021,06,24,01,23,19.00
2021,06,24,01,24,19.00
2021,06,24,01,25,18.90
2021,06,24,01,26,18.90
2021,06,24,01,27,18.90
2021,06,24,01,28,18.90
2021,06,24,01,29,18.90
2021,06,24,01,30,18.90
2021,06,24,01,31,18.70
2021,06,24,01,32,18.60
2021,06,24,01,33,18.60
2021,06,24,01,34,18.60
2021,06,24,01,35,18.50
2021,06,24,01,36,18.50
2021,06,24,01,37,18.50
2021,06,24,01,38,18.50
2021,06,24,01,39,18.50
2021,06,24,01,40,18.60
2021,06,24,01,41,18.60
2021,06,24,01,42,18.60
2021,06,24,01,43,18.60
2021,06,24,01,44,18.60
2021,06,24,01,45,18.60
2021,06,24,01,46,18.60
2021,06,24,01,47,18.70
2021,06,24,01,48,18.70
2021,06,24,01,49,18.70
2021,06,24,01,50,18.60
2021,06,24,01,51,18.60
2021,06,24,01,52,18.60
2021,06,24,01,53,18.60
2021,06,24,01,54,18.60
2021,06,24,01,55,18.60
2021,06,24,01,56,18.60
2021,06,24,01,57,18.50
2021,06,24,01,58,18.50
2021,06,24,01,59,18.50
2021,06,24,02,00,18.50
2021,06,24,02,01,18.50
2021,06,24,02,02,18.40
2021,06,24,02,03,18.40
2021,06,24,02,04,18.40
2021,06,24,02,05,18.40
2021,06,24,02,06,18.40
2021,06,24,02,07,18.40
2021,06,24,02,08,18.30
2021,06,24,02,09,18.30
2021,06,24,02,10,18.30
2021,06,24,02,11,18.20
2021,06,24,02,12,18.10
2021,06,24,02,13,18.10
2021,06,24,02,14,18.00
2021,06,24,02,15,18.00
2021,06,24,02,16,17.90
2021,06,24,02,17,17.80
2021,06,24,02,18,17.80
2021,06,24,02,19,17.80
2021,06,24,02,20,17.80
2021,06,24,02,21,17.80
2021,06,24,02,22,17.80
2021,06,24,02,23,17.80
2021,06,24,02,24,17.80
2021,06,24,02,25,17.80
2021,06,24,02,26,17.70
2021,06,24,02,27,17.70
2021,06,24,02,28,17.70
2021,06,24,02,29,17.70
2021,06,24,02,30,17.60
2021,06,24,02,31,17.60
2021,06,24,02,32,17.60
2021,06,24,02,33,17.60
2021,06,24,02,34,17.60
2021,06,24,02,35,17.60
2021,06,24,02,36,17.60
2021,06,24,02,37,17.60
2021,06,24,02,38,17.60
2021,06,24,02,39,17.50
2021,06,24,02,40,17.50
2021,06,24,02,41,17.50
2021,06,24,02,42,17.40
2021,06,24,02,43,17.40
2021,06,24,02,44,17.40
2021,06,24,02,45,17.40
2021,06,24,02,46,17.30
2021,06,24,02,47,17.30
2021,06,24,02,48,17.30
2021,06,24,02,49,17.30
2021,06,24,02,50,17.20
2021,06,24,02,51,17.20
2021,06,24,02,52,17.20
2021,06,24,02,53,17.20
2021,06,24,02,54,17.20
2021,06,24,02,55,17.10
2021,06,24,02,56,17.10
2021,06,24,02,57,17.10
2021,06,24,02,58,17.10
2021,06,24,02,59,17.10
2021,06,24,03,00,17.10
2021,06,24,03,01,17.10
2021,06,24,03,02,17.10
2021,06,24,03,03,17.10
2021,06,24,03,04,17.10
2021,06,24,03,05,17.10
2021,06,24,03,06,17.10
2021,06,24,03,07,17.10
2021,06,24,03,08,17.20
2021,06,24,03,09,17.20
2021,06,24,03,10,17.10
2021,06,24,03,11,17.10
2021,06,24,03,12,17.00
2021,06,24,03,13,17.00
2021,06,24,03,14,16.90
2021,06,24,03,15,16.80
2021,06,24,03,16,16.80
2021,06,24,03,17,16.80
2021,06,24,03,18,16.70
2021,06,24,03,19,16.70
2021,06,24,03,20,16.60
2021,06,24,03,21,16.60
2021,06,24,03,22,16.60
2021,06,24,03,23,16.50
2021,06,24,03,24,16.50
2021,06,24,03,25,16.50
2021,06,24,03,26,16.50
2021,06,24,03,27,16.40
2021,06,24,03,28,16.40
2021,06,24,03,29,16.40
2021,06,24,03,30,16.40
2021,06,24,03,31,16.30
2021,06,24,03,32,16.30
2021,06,24,03,33,16.30
2021,06,24,03,34,16.30
2021,06,24,03,35,16.30
2021,06,24,03,36,16.30
2021,06,24,03,37,16.20
2021,06,24,03,38,16.20
2021,06,24,03,39,16.20
2021,06,24,03,40,16.10
2021,06,24,03,41,16.10
2021,06,24,03,42,16.00
2021,06,24,03,43,16.00
2021,06,24,03,44,16.00
2021,06,24,03,45,16.00
2021,06,24,03,46,16.00
2021,06,24,03,47,15.90
2021,06,24,03,48,15.90
2021,06,24,03,49,16.00
2021,06,24,03,50,16.00
2021,06,24,03,51,16.00
2021,06,24,03,52,16.00
2021,06,24,03,53,16.00
2021,06,24,03,54,15.90
2021,06,24,03,55,16.00
2021,06,24,03,56,15.90
2021,06,24,03,57,15.90
2021,06,24,03,58,15.90
2021,06,24,03,59,16.00
2021,06,24,04,00,16.00
2021,06,24,04,01,16.10
2021,06,24,04,02,16.10
2021,06,24,04,03,16.10
2021,06,24,04,04,16.10
2021,06,24,04,05,16.20
2021,06,24,04,06,16.20
2021,06,24,04,07,16.20
2021,06,24,04,08,16.20
2021,06,24,04,09,16.20
2021,06,24,04,10,16.20
2021,06,24,04,11,16.20
2021,06,24,04,12,16.20
2021,06,24,04,13,16.20
2021,06,24,04,14,16.10
2021,06,24,04,15,16.10
2021,06,24,04,16,16.10
2021,06,24,04,17,16.10
2021,06,24,04,18,16.10
2021,06,24,04,19,16.10
2021,06,24,04,20,16.10
2021,06,24,04,21,16.10
2021,06,24,04,22,16.10
2021,06,24,04,23,16.10
2021,06,24,04,24,16.00
2021,06,24,04,25,16.00
2021,06,24,04,26,16.00
2021,06,24,04,27,15.90
2021,06,24,04,28,15.90
2021,06,24,04,29,16.00
2021,06,24,04,30,16.00
2021,06,24,04,31,16.00
2021,06,24,04,32,16.00
2021,06,24,04,33,16.00
2021,06,24,04,34,16.00
2021,06,24,04,35,16.00
2021,06,24,04,36,16.00
2021,06,24,04,37,16.00
2021,06,24,04,38,16.00
2021,06,24,04,39,16.00
2021,06,24,04,40,16.00
2021,06,24,04,41,16.10
2021,06,24,04,42,16.10
2021,06,24,04,43,16.10
2021,06,24,04,44,16.10
2021,06,24,04,45,16.10
2021,06,24,04,46,16.10
2021,06,24,04,47,16.10
2021,06,24,04,48,16.10
2021,06,24,04,49,16.20
2021,06,24,04,50,16.20
2021,06,24,04,51,16.30
2021,06,24,04,52,16.30
2021,06,24,04,53,16.30
2021,06,24,04,54,16.30
2021,06,24,04,55,16.30
2021,06,24,04,56,16.30
2021,06,24,04,57,16.30
2021,06,24,04,58,16.40
2021,06,24,04,59,16.40
2021,06,24,05,00,16.40
2021,06,24,05,01,16.40
2021,06,24,05,02,16.40
2021,06,24,05,03,16.50
2021,06,24,05,04,16.50
2021,06,24,05,05,16.50
2021,06,24,05,06,16.50
2021,06,24,05,07,16.50
2021,06,24,05,08,16.50
2021,06,24,05,09,16.50
2021,06,24,05,10,16.50
2021,06,24,05,11,16.50
2021,06,24,05,12,16.50
2021,06,24,05,13,16.50
2021,06,24,05,14,16.40
2021,06,24,05,15,16.40
2021,06,24,05,16,16.40
2021,06,24,05,17,16.40
2021,06,24,05,18,16.40
2021,06,24,05,19,16.40
2021,06,24,05,20,16.40
2021,06,24,05,21,16.40
2021,06,24,05,22,16.40
2021,06,24,05,23,16.40
2021,06,24,05,24,16.40
2021,06,24,05,25,16.40
2021,06,24,05,26,16.40
2021,06,24,05,27,16.40
2021,06,24,05,28,16.30
2021,06,24,05,29,16.30
2021,06,24,05,30,16.30
2021,06,24,05,31,16.30
2021,06,24,05,32,16.30
2021,06,24,05,33,16.30
2021,06,24,05,34,16.30
2021,06,24,05,35,16.20
2021,06,24,05,36,16.20
2021,06,24,05,37,16.20
2021,06,24,05,38,16.20
2021,06,24,05,39,16.20
2021,06,24,05,40,16.20
2021,06,24,05,41,16.10
2021,06,24,05,42,16.10
2021,06,24,05,43,16.10
2021,06,24,05,44,16.10
2021,06,24,05,45,16.10
2021,06,24,05,46,16.00
2021,06,24,05,47,16.00
2021,06,24,05,48,16.00
2021,06,24,05,49,15.90
2021,06,24,05,50,15.90
2021,06,24,05,51,15.90
2021,06,24,05,52,15.90
2021,06,24,05,53,15.90
2021,06,24,05,54,15.90
2021,06,24,05,55,15.90
2021,06,24,05,56,15.90
2021,06,24,05,57,15.90
2021,06,24,05,58,15.90
2021,06,24,05,59,15.90
2021,06,24,06,00,16.00
2021,06,24,06,01,16.00
2021,06,24,06,02,16.00
2021,06,24,06,03,16.00
2021,06,24,06,04,16.10
2021,06,24,06,05,16.10
2021,06,24,06,06,16.20
2021,06,24,06,07,16.20
2021,06,24,06,08,16.20
2021,06,24,06,09,16.20
2021,06,24,06,10,16.20
2021,06,24,06,11,16.20
2021,06,24,06,12,16.20
2021,06,24,06,13,16.20
2021,06,24,06,14,16.20
2021,06,24,06,15,16.20
2021,06,24,06,16,16.20
2021,06,24,06,17,16.30
2021,06,24,06,18,16.30
2021,06,24,06,19,16.30
2021,06,24,06,20,16.30
2021,06,24,06,21,16.40
2021,06,24,06,22,16.40
2021,06,24,06,23,16.40
2021,06,24,06,24,16.40
2021,06,24,06,25,16.40
2021,06,24,06,26,16.50
2021,06,24,06,27,16.50
2021,06,24,06,28,16.60
2021,06,24,06,29,16.60
2021,06,24,06,30,16.60
2021,06,24,06,31,16.60
2021,06,24,06,32,16.70
2021,06,24,06,33,16.70
2021,06,24,06,34,16.70
2021,06,24,06,35,16.70
2021,06,24,06,36,16.80
2021,06,24,06,37,16.80
2021,06,24,06,38,16.90
2021,06,24,06,39,16.90
2021,06,24,06,40,17.00
2021,06,24,06,41,17.00
2021,06,24,06,42,17.10
2021,06,24,06,43,17.10
2021,06,24,06,44,17.20
2021,06,24,06,45,17.30
2021,06,24,06,46,17.30
2021,06,24,06,47,17.30
2021,06,24,06,48,17.40
2021,06,24,06,49,17.40
2021,06,24,06,50,17.40
2021,06,24,06,51,17.50
2021,06,24,06,52,17.50
2021,06,24,06,53,17.50
2021,06,24,06,54,17.60
2021,06,24,06,55,17.60
2021,06,24,06,56,17.60
2021,06,24,06,57,17.60
2021,06,24,06,58,17.70
2021,06,24,06,59,17.70
2021,06,24,07,00,17.70
2021,06,24,07,01,17.70
2021,06,24,07,02,17.70
2021,06,24,07,03,17.80
2021,06,24,07,04,17.80
2021,06,24,07,05,17.80
2021,06,24,07,06,17.80
2021,06,24,07,07,17.80
2021,06,24,07,08,17.90
2021,06,24,07,09,17.90
2021,06,24,07,10,17.90
2021,06,24,07,11,18.00
2021,06,24,07,12,18.00
2021,06,24,07,13,18.10
2021,06,24,07,14,18.10
2021,06,24,07,15,18.20
2021,06,24,07,16,18.10
2021,06,24,07,17,18.10
2021,06,24,07,18,18.10
2021,06,24,07,19,18.10
2021,06,24,07,20,18.10
2021,06,24,07,21,18.10
2021,06,24,07,22,18.10
2021,06,24,07,23,18.10
2021,06,24,07,24,18.10
2021,06,24,07,25,18.10
2021,06,24,07,26,18.20
2021,06,24,07,27,18.20
2021,06,24,07,28,18.20
2021,06,24,07,29,18.20
2021,06,24,07,30,18.20
2021,06,24,07,31,18.20
2021,06,24,07,32,18.10
2021,06,24,07,33,18.10
2021,06,24,07,34,18.10
2021,06,24,07,35,18.10
2021,06,24,07,36,18.20
2021,06,24,07,37,18.20
2021,06,24,07,38,18.20
2021,06,24,07,39,18.20
2021,06,24,07,40,18.30
2021,06,24,07,41,18.30
2021,06,24,07,42,18.40
2021,06,24,07,43,18.40
2021,06,24,07,44,18.40
2021,06,24,07,45,18.40
2021,06,24,07,46,18.40
2021,06,24,07,47,18.50
2021,06,24,07,48,18.50
2021,06,24,07,49,18.60
2021,06,24,07,50,18.60
2021,06,24,07,51,18.60
2021,06,24,07,52,18.70
2021,06,24,07,53,18.60
2021,06,24,07,54,18.70
2021,06,24,07,55,18.70
2021,06,24,07,56,18.60
2021,06,24,07,57,18.60
2021,06,24,07,58,18.70
2021,06,24,07,59,18.70
2021,06,24,08,00,18.80
2021,06,24,08,01,18.80
2021,06,24,08,02,18.80
2021,06,24,08,03,18.80
2021,06,24,08,04,18.80
2021,06,24,08,05,18.80
2021,06,24,08,06,18.80
2021,06,24,08,07,18.80
2021,06,24,08,08,18.80
2021,06,24,08,09,18.80
2021,06,24,08,10,18.80
2021,06,24,08,11,18.80
2021,06,24,08,12,18.80
2021,06,24,08,13,18.80
2021,06,24,08,14,18.80
2021,06,24,08,15,18.90
2021,06,24,08,16,19.00
2021,06,24,08,17,19.00
2021,06,24,08,18,19.10
2021,06,24,08,19,19.10
2021,06,24,08,20,19.10
2021,06,24,08,21,19.10
2021,06,24,08,22,19.10
2021,06,24,08,23,19.00
2021,06,24,08,24,19.00
2021,06,24,08,25,19.00
2021,06,24,08,26,19.10
2021,06,24,08,27,19.10
2021,06,24,08,28,19.20
2021,06,24,08,29,19.20
2021,06,24,08,30,19.20
2021,06,24,08,31,19.20
2021,06,24,08,32,19.20
2021,06,24,08,33,19.30
2021,06,24,08,34,19.30
2021,06,24,08,35,19.40
2021,06,24,08,36,19.40
2021,06,24,08,37,19.50
2021,06,24,08,38,19.50
2021,06,24,08,39,19.60
2021,06,24,08,40,19.60
2021,06,24,08,41,19.70
2021,06,24,08,42,19.70
2021,06,24,08,43,19.80
2021,06,24,08,44,19.80
2021,06,24,08,45,19.80
2021,06,24,08,46,19.80
2021,06,24,08,47,19.80
2021,06,24,08,48,19.80
2021,06,24,08,49,19.80
2021,06,24,08,50,19.70
2021,06,24,08,51,19.60
2021,06,24,08,52,19.50
2021,06,24,08,53,19.50
2021,06,24,08,54,19.50
2021,06,24,08,55,19.60
2021,06,24,08,56,19.60
2021,06,24,08,57,19.70
2021,06,24,08,58,19.70
2021,06,24,08,59,19.70
2021,06,24,09,00,19.80
2021,06,24,09,01,19.80
2021,06,24,09,02,19.80
2021,06,24,09,03,19.90
2021,06,24,09,04,19.90
2021,06,24,09,05,19.90
2021,06,24,09,06,19.90
2021,06,24,09,07,19.90
2021,06,24,09,08,19.80
2021,06,24,09,09,19.80
2021,06,24,09,10,19.80
2021,06,24,09,11,19.80
2021,06,24,09,12,19.90
2021,06,24,09,13,19.80
2021,06,24,09,14,19.90
2021,06,24,09,15,19.90
2021,06,24,09,16,19.90
2021,06,24,09,17,19.90
2021,06,24,09,18,20.00
2021,06,24,09,19,20.00
2021,06,24,09,20,19.90
2021,06,24,09,21,19.90
2021,06,24,09,22,19.90
2021,06,24,09,23,19.80
2021,06,24,09,24,19.90
2021,06,24,09,25,19.90
2021,06,24,09,26,19.90
2021,06,24,09,27,20.00
2021,06,24,09,28,20.10
2021,06,24,09,29,20.10
2021,06,24,09,30,20.20
2021,06,24,09,31,20.30
2021,06,24,09,32,20.40
2021,06,24,09,33,20.40
2021,06,24,09,34,20.40
2021,06,24,09,35,20.40
2021,06,24,09,36,20.40
2021,06,24,09,37,20.50
2021,06,24,09,38,20.60
2021,06,24,09,39,20.60
2021,06,24,09,40,20.60
2021,06,24,09,41,20.70
2021,06,24,09,42,20.70
2021,06,24,09,43,20.70
2021,06,24,09,44,20.70
2021,06,24,09,45,20.70
2021,06,24,09,46,20.60
2021,06,24,09,47,20.60
2021,06,24,09,48,20.60
2021,06,24,09,49,20.70
2021,06,24,09,50,20.60
2021,06,24,09,51,20.60
2021,06,24,09,52,20.70
2021,06,24,09,53,20.70
2021,06,24,09,54,20.70
2021,06,24,09,55,20.70
2021,06,24,09,56,20.70
2021,06,24,09,57,20.70
2021,06,24,09,58,20.80
2021,06,24,09,59,20.80
2021,06,24,10,00,20.80
2021,06,24,10,01,20.80
2021,06,24,10,02,20.90
2021,06,24,10,03,20.90
2021,06,24,10,04,20.90
2021,06,24,10,05,20.90
2021,06,24,10,06,20.80
2021,06,24,10,07,20.80
2021,06,24,10,08,20.80
2021,06,24,10,09,20.80
2021,06,24,10,10,20.80
2021,06,24,10,11,20.80
2021,06,24,10,12,20.80
2021,06,24,10,13,20.80
2021,06,24,10,14,20.80
2021,06,24,10,15,20.80
2021,06,24,10,16,20.70
2021,06,24,10,17,20.70
2021,06,24,10,18,20.80
2021,06,24,10,19,20.80
2021,06,24,10,20,20.80
2021,06,24,10,21,20.90
2021,06,24,10,22,20.90
2021,06,24,10,23,21.00
2021,06,24,10,24,21.00
2021,06,24,10,25,21.20
2021,06,24,10,26,21.20
2021,06,24,10,27,21.20
2021,06,24,10,28,21.20
2021,06,24,10,29,21.20
2021,06,24,10,30,21.20
2021,06,24,10,31,21.20
2021,06,24,10,32,21.10
2021,06,24,10,33,21.00
2021,06,24,10,34,20.90
2021,06,24,10,35,20.80
2021,06,24,10,36,20.80
2021,06,24,10,37,20.70
2021,06,24,10,38,20.70
2021,06,24,10,39,20.70
2021,06,24,10,40,20.70
2021,06,24,10,41,20.60
2021,06,24,10,42,20.60
2021,06,24,10,43,20.60
2021,06,24,10,44,20.50
2021,06,24,10,45,20.50
2021,06,24,10,46,20.60
2021,06,24,10,47,20.50
2021,06,24,10,48,20.50
2021,06,24,10,49,20.40
2021,06,24,10,50,20.50
2021,06,24,10,51,20.50
2021,06,24,10,52,20.50
2021,06,24,10,53,20.60
2021,06,24,10,54,20.70
2021,06,24,10,55,20.60
2021,06,24,10,56,20.60
2021,06,24,10,57,20.60
2021,06,24,10,58,20.60
2021,06,24,10,59,20.70
2021,06,24,11,00,20.70
2021,06,24,11,01,20.80
2021,06,24,11,02,20.80
2021,06,24,11,03,20.90
2021,06,24,11,04,20.90
2021,06,24,11,05,20.90
2021,06,24,11,06,21.00
2021,06,24,11,07,21.00
2021,06,24,11,08,21.20
2021,06,24,11,09,21.20
2021,06,24,11,10,21.30
2021,06,24,11,11,21.30
2021,06,24,11,12,21.30
2021,06,24,11,13,21.30
2021,06,24,11,14,21.30
2021,06,24,11,15,21.40
2021,06,24,11,16,21.50
2021,06,24,11,17,21.50
2021,06,24,11,18,21.50
2021,06,24,11,19,21.50
2021,06,24,11,20,21.60
2021,06,24,11,21,21.60
2021,06,24,11,22,21.70
2021,06,24,11,23,21.80
2021,06,24,11,24,21.90
2021,06,24,11,25,21.90
2021,06,24,11,26,21.90
2021,06,24,11,27,21.90
2021,06,24,11,28,21.90
2021,06,24,11,29,21.90
2021,06,24,11,30,21.90
2021,06,24,11,31,21.80
2021,06,24,11,32,21.70
2021,06,24,11,33,21.60
2021,06,24,11,34,21.60
2021,06,24,11,35,21.70
2021,06,24,11,36,21.80
2021,06,24,11,37,21.80
2021,06,24,11,38,21.80
2021,06,24,11,39,21.90
2021,06,24,11,40,21.90
2021,06,24,11,41,21.90
2021,06,24,11,42,21.90
2021,06,24,11,43,21.90
2021,06,24,11,44,21.90
2021,06,24,11,45,21.90
2021,06,24,11,46,21.80
2021,06,24,11,47,21.90
2021,06,24,11,48,21.90
2021,06,24,11,49,22.00
2021,06,24,11,50,22.00
2021,06,24,11,51,21.90
2021,06,24,11,52,21.90
2021,06,24,11,53,21.90
2021,06,24,11,54,22.00
2021,06,24,11,55,22.00
2021,06,24,11,56,22.00
2021,06,24,11,57,21.90
2021,06,24,11,58,21.90
2021,06,24,11,59,21.90
2021,06,24,12,00,22.00
2021,06,24,12,01,22.00
2021,06,24,12,02,22.00
2021,06,24,12,03,22.00
2021,06,24,12,04,22.00
2021,06,24,12,05,22.10
2021,06,24,12,06,22.10
2021,06,24,12,07,22.10
2021,06,24,12,08,22.10
2021,06,24,12,09,22.10
2021,06,24,12,10,22.10
2021,06,24,12,11,22.20
2021,06,24,12,12,22.20
2021,06,24,12,13,22.10
2021,06,24,12,14,22.10
2021,06,24,12,15,22.10
2021,06,24,12,16,22.00
2021,06,24,12,17,22.00
2021,06,24,12,18,22.10
2021,06,24,12,19,22.20
2021,06,24,12,20,22.40
2021,06,24,12,21,22.50
2021,06,24,12,22,22.60
2021,06,24,12,23,22.50
2021,06,24,12,24,22.40
2021,06,24,12,25,22.30
2021,06,24,12,26,22.30
2021,06,24,12,27,22.30
2021,06,24,12,28,22.30
2021,06,24,12,29,22.30
2021,06,24,12,30,22.30
2021,06,24,12,31,22.40
2021,06,24,12,32,22.30
2021,06,24,12,33,22.40
2021,06,24,12,34,22.40
2021,06,24,12,35,22.50
2021,06,24,12,36,22.60
2021,06,24,12,37,22.60
2021,06,24,12,38,22.50
2021,06,24,12,39,22.50
2021,06,24,12,40,22.50
2021,06,24,12,41,22.60
2021,06,24,12,42,22.50
2021,06,24,12,43,22.60
2021,06,24,12,44,22.70
2021,06,24,12,45,22.70
2021,06,24,12,46,22.80
2021,06,24,12,47,22.90
2021,06,24,12,48,23.00
2021,06,24,12,49,23.00
2021,06,24,12,50,23.10
2021,06,24,12,51,23.10
2021,06,24,12,52,23.10
2021,06,24,12,53,23.20
2021,06,24,12,54,23.40
2021,06,24,12,55,23.40
2021,06,24,12,56,23.40
2021,06,24,12,57,23.30
2021,06,24,12,58,23.30
2021,06,24,12,59,23.30
2021,06,24,13,00,23.30
2021,06,24,13,01,23.40
2021,06,24,13,02,23.50
2021,06,24,13,03,23.50
2021,06,24,13,04,23.60
2021,06,24,13,05,23.60
2021,06,24,13,06,23.70
2021,06,24,13,07,23.70
2021,06,24,13,08,23.70
2021,06,24,13,09,23.80
2021,06,24,13,10,23.70
2021,06,24,13,11,23.70
2021,06,24,13,12,23.60
2021,06,24,13,13,23.60
2021,06,24,13,14,23.70
2021,06,24,13,15,23.70
2021,06,24,13,16,23.70
2021,06,24,13,17,23.70
2021,06,24,13,18,23.70
2021,06,24,13,19,23.80
2021,06,24,13,20,23.90
2021,06,24,13,21,23.90
2021,06,24,13,22,23.90
2021,06,24,13,23,24.00
2021,06,24,13,24,24.00
2021,06,24,13,25,24.10
2021,06,24,13,26,24.10
2021,06,24,13,27,24.10
2021,06,24,13,28,24.20
2021,06,24,13,29,24.30
2021,06,24,13,30,24.30
2021,06,24,13,31,24.30
2021,06,24,13,32,24.30
2021,06,24,13,33,24.30
2021,06,24,13,34,24.30
2021,06,24,13,35,24.30
2021,06,24,13,36,24.30
2021,06,24,13,37,24.40
2021,06,24,13,38,24.50
2021,06,24,13,39,24.50
2021,06,24,13,40,24.60
2021,06,24,13,41,24.60
2021,06,24,13,42,24.50
2021,06,24,13,43,24.40
2021,06,24,13,44,24.30
2021,06,24,13,45,24.20
2021,06,24,13,46,24.10
2021,06,24,13,47,24.20
2021,06,24,13,48,24.20
2021,06,24,13,49,24.30
2021,06,24,13,50,24.30
2021,06,24,13,51,24.30
2021,06,24,13,52,24.30
2021,06,24,13,53,24.30
2021,06,24,13,54,24.30
2021,06,24,13,55,24.30
2021,06,24,13,56,24.20
2021,06,24,13,57,24.30
2021,06,24,13,58,24.40
2021,06,24,13,59,24.40
2021,06,24,14,00,24.50
2021,06,24,14,01,24.70
2021,06,24,14,02,24.80
2021,06,24,14,03,24.90
2021,06,24,14,04,24.90
2021,06,24,14,05,24.90
2021,06,24,14,06,24.80
2021,06,24,14,07,24.70
2021,06,24,14,08,24.60
2021,06,24,14,09,24.50
2021,06,24,14,10,24.40
2021,06,24,14,11,24.20
2021,06,24,14,12,24.20
2021,06,24,14,13,24.20
2021,06,24,14,14,24.30
2021,06,24,14,15,24.30
2021,06,24,14,16,24.30
2021,06,24,14,17,24.30
2021,06,24,14,18,24.30
2021,06,24,14,19,24.40
2021,06,24,14,20,24.40
2021,06,24,14,21,24.50
2021,06,24,14,22,24.50
2021,06,24,14,23,24.50
2021,06,24,14,24,24.60
2021,06,24,14,25,24.60
2021,06,24,14,26,24.70
2021,06,24,14,27,24.70
2021,06,24,14,28,24.70
2021,06,24,14,29,24.80
2021,06,24,14,30,24.90
2021,06,24,14,31,24.90
2021,06,24,14,32,24.90
2021,06,24,14,33,24.90
2021,06,24,14,34,24.90
2021,06,24,14,35,24.90
2021,06,24,14,36,24.90
2021,06,24,14,37,24.90
2021,06,24,14,38,24.90
2021,06,24,14,39,24.90
2021,06,24,14,40,25.00
2021,06,24,14,41,25.10
2021,06,24,14,42,25.10
2021,06,24,14,43,25.10
2021,06,24,14,44,25.10
2021,06,24,14,45,25.20
2021,06,24,14,46,25.30
2021,06,24,14,47,25.40
2021,06,24,14,48,25.40
2021,06,24,14,49,25.30
2021,06,24,14,50,25.30
2021,06,24,14,51,25.30
2021,06,24,14,52,25.30
2021,06,24,14,53,25.20
2021,06,24,14,54,25.20
2021,06,24,14,55,25.20
2021,06,24,14,56,25.20
2021,06,24,14,57,25.20
2021,06,24,14,58,25.20
2021,06,24,14,59,25.10
2021,06,24,15,00,25.00
2021,06,24,15,01,24.90
2021,06,24,15,02,24.90
2021,06,24,15,03,24.90
2021,06,24,15,04,24.80
2021,06,24,15,05,24.80
2021,06,24,15,06,24.80
2021,06,24,15,07,24.80
2021,06,24,15,08,24.80
2021,06,24,15,09,24.80
2021,06,24,15,10,24.80
2021,06,24,15,11,24.80
2021,06,24,15,12,24.80
2021,06,24,15,13,24.70
2021,06,24,15,14,24.70
2021,06,24,15,15,24.70
2021,06,24,15,16,24.90
2021,06,24,15,17,25.10
2021,06,24,15,18,25.20
2021,06,24,15,19,25.30
2021,06,24,15,20,25.40
2021,06,24,15,21,25.60
2021,06,24,15,22,25.70
2021,06,24,15,23,25.80
2021,06,24,15,24,25.80
2021,06,24,15,25,25.80
2021,06,24,15,26,25.80
2021,06,24,15,27,25.80
2021,06,24,15,28,25.80
2021,06,24,15,29,25.70
2021,06,24,15,30,25.60
2021,06,24,15,31,25.60
2021,06,24,15,32,25.60
2021,06,24,15,33,25.80
2021,06,24,15,34,25.90
2021,06,24,15,35,26.00
2021,06,24,15,36,26.20
2021,06,24,15,37,26.20
2021,06,24,15,38,26.30
2021,06,24,15,39,26.30
2021,06,24,15,40,26.30
2021,06,24,15,41,26.20
2021,06,24,15,42,26.00
2021,06,24,15,43,25.90
2021,06,24,15,44,25.80
2021,06,24,15,45,25.80
2021,06,24,15,46,25.70
2021,06,24,15,47,25.70
2021,06,24,15,48,25.70
2021,06,24,15,49,25.70
2021,06,24,15,50,25.70
2021,06,24,15,51,25.80
2021,06,24,15,52,25.80
2021,06,24,15,53,25.80
2021,06,24,15,54,25.90
2021,06,24,15,55,25.90
2021,06,24,15,56,26.00
2021,06,24,15,57,26.10
2021,06,24,15,58,26.10
2021,06,24,15,59,26.10
2021,06,24,16,00,26.00
2021,06,24,16,01,25.90
2021,06,24,16,02,25.80
2021,06,24,16,03,25.80
2021,06,24,16,04,25.90
2021,06,24,16,05,25.90
2021,06,24,16,06,25.90
2021,06,24,16,07,25.90
2021,06,24,16,08,25.90
2021,06,24,16,09,26.00
2021,06,24,16,10,26.10
2021,06,24,16,11,26.20
2021,06,24,16,12,26.20
2021,06,24,16,13,26.20
2021,06,24,16,14,26.20
2021,06,24,16,15,26.10
2021,06,24,16,16,26.10
2021,06,24,16,17,26.10
2021,06,24,16,18,26.10
2021,06,24,16,19,26.20
2021,06,24,16,20,26.20
2021,06,24,16,21,26.20
2021,06,24,16,22,26.20
2021,06,24,16,23,26.30
2021,06,24,16,24,26.30
2021,06,24,16,25,26.40
2021,06,24,16,26,26.40
2021,06,24,16,27,26.50
2021,06,24,16,28,26.50
2021,06,24,16,29,26.40
2021,06,24,16,30,26.50
2021,06,24,16,31,26.50
2021,06,24,16,32,26.50
2021,06,24,16,33,26.50
2021,06,24,16,34,26.40
2021,06,24,16,35,26.40
2021,06,24,16,36,26.50
2021,06,24,16,37,26.60
2021,06,24,16,38,26.60
2021,06,24,16,39,26.70
2021,06,24,16,40,26.80
2021,06,24,16,41,26.80
2021,06,24,16,42,26.80
2021,06,24,16,43,26.80
2021,06,24,16,44,26.80
2021,06,24,16,45,26.80
2021,06,24,16,46,26.80
2021,06,24,16,47,26.90
2021,06,24,16,48,26.80
2021,06,24,16,49,26.80
2021,06,24,16,50,26.90
2021,06,24,16,51,26.90
2021,06,24,16,52,26.90
2021,06,24,16,53,26.80
2021,06,24,16,54,26.70
2021,06,24,16,55,26.70
2021,06,24,16,56,26.80
2021,06,24,16,57,26.80
2021,06,24,16,58,26.80
2021,06,24,16,59,26.80
2021,06,24,17,00,26.80
2021,06,24,17,01,26.80
2021,06,24,17,02,26.80
2021,06,24,17,03,26.70
2021,06,24,17,04,26.60
2021,06,24,17,05,26.60
2021,06,24,17,06,26.50
2021,06,24,17,07,26.50
2021,06,24,17,08,26.40
2021,06,24,17,09,26.40
2021,06,24,17,10,26.40
2021,06,24,17,11,26.40
2021,06,24,17,12,26.50
2021,06,24,17,13,26.50
2021,06,24,17,14,26.50
2021,06,24,17,15,26.40
2021,06,24,17,16,26.40
2021,06,24,17,17,26.30
2021,06,24,17,18,26.20
2021,06,24,17,19,26.10